Location: ?????????
(54.7630°N, 39.4991°E)
Time: 10:41:09
(UTC+00:00)

ARIANE 6 FM1 Upper Stage - Pass Details

Date: 14 April 2026
Orbit: 526 x 601 km, 62.0° (Epoch: 19 May)

Event Time Altitude Azimuth Distance (km) Brightness Sun altitude
Rises 23:18:38 0° 305° (NW) 2,678 6.2 -21.1°
Reaches altitude 10° 23:20:54 10° 299° (WNW) 1,780 5.2 -20.9°
Enters shadow 23:22:12 19° 292° (WNW) 1,297 4.4 -20.8°
